Theta_e
326 326 327 329 329 330 330 330 330 331 333 333 331 331 331 333 335 337 338 340 342 341 342 341 340 338 336 334 336 334 332 335 336 337 336 336 337 337 340 343 343 342 343
323 323 324 325 325 326 328 328 328 330 333 334 335 335 333 335 335 333 333 336 336 338 338 336 336 336 334 332 332 333 332 333 338 330 328 326 330 334 338 341 341 340 340
319 321 320 320 320 321 322 323 324 326 328 330 336 336 337 334 332 332 332 333 335 335 333 334 333 333 330 330 330 329 328 325 329 332 326 321 320 328 334 335 338 339 338
317 318 318 316 316 315 317 317 317 320 323 323 328 331 331 330 329 329 329 332 333 332 334 333 333 332 332 329 330 330 327 326 323 325 332 328 324 321 321 331 334 336 334
315 314 313 313 313 313 313 313 314 313 314 316 320 323 321 321 321 321 320 321 320 319 322 323 328 330 330 330 330 329 328 328 326 324 327 329 327 324 321 320 326 330 332
313 313 313 312 312 311 311 310 310 310 312 312 312 314 313 314 313 314 314 314 314 315 314 317 317 318 320 323 327 328 327 326 326 327 327 326 325 323 323 320 322 324 329
312 312 311 310 309 308 308 308 307 306 308 309 309 309 309 309 309 309 309 309 309 306 307 310 311 313 314 315 316 319 323 326 325 326 327 330 329 328 326 323 322 321 325
311 311 310 310 308 308 307 307 306 306 306 307 306 306 307 306 305 307 308 307 305 304 304 305 306 307 308 309 310 314 314 314 315 316 319 322 327 328 327 325 322 319 322
311 310 311 309 308 307 307 307 307 307 307 306 305 304 304 303 302 303 307 306 302 304 302 303 303 304 304 305 305 307 308 309 311 312 314 314 317 319 322 327 327 323 317
311 311 310 310 309 309 309 309 309 308 307 306 306 304 303 302 302 302 302 301 301 301 302 302 302 302 303 304 303 303 304 305 306 308 308 310 312 314 315 316 319 322 323
311 311 311 312 311 310 308 307 307 308 307 307 306 304 303 302 302 301 301 301 301 301 301 301 301 302 302 304 304 303 304 304 305 306 306 306 309 310 311 312 314 315 316
312 311 310 310 309 308 306 306 306 306 306 306 305 304 302 305 301 301 301 301 300 301 301 301 301 302 302 301 301 301 302 303 303 303 304 305 307 307 309 309 307 309 313
308 309 309 309 309 308 307 306 306 306 305 305 303 302 302 303 300 300 300 300 300 300 301 301 301 302 302 302 302 301 300 301 302 303 302 303 304 304 306 307 307 307 309
308 307 308 309 309 309 308 307 307 306 305 304 302 301 301 301 301 301 301 300 300 300 300 300 300 301 301 301 301 301 301 301 301 303 302 302 302 303 305 306 307 307 305
309 309 308 307 308 307 308 308 308 306 305 304 302 301 302 302 301 301 301 301 301 301 301 300 300 299 299 301 302 301 302 301 302 303 303 304 305 307 307 305 307 307 304
305 310 310 309 308 308 308 308 307 306 305 304 303 302 302 302 302 301 301 301 302 301 301 300 300 299 299 300 302 302 302 301 302 301 302 303 305 305 307 307 308 307 305
305 305 305 310 310 310 310 308 308 307 305 304 304 303 302 302 302 302 303 303 302 302 301 301 300 300 301 300 301 301 302 301 302 303 303 303 304 304 306 306 306 306 306
303 306 307 306 311 312 310 311 307 306 306 305 304 304 303 303 302 302 304 304 301 300 300 300 301 303 304 302 300 301 301 303 303 303 303 303 302 302 303 304 304 304 305
303 306 309 308 307 311 311 311 307 306 306 305 305 304 304 303 301 301 300 299 298 298 299 301 302 303 304 302 300 300 300 301 302 303 303 303 301 301 301 302 300 301 303
302 304 308 308 306 308 309 308 306 305 305 306 305 305 305 303 301 301 299 298 298 299 299 300 301 301 304 300 299 300 301 301 300 302 302 303 302 300 299 301 301 299 301
302 304 306 306 306 306 307 306 305 304 307 307 305 304 303 302 301 300 298 298 298 299 298 299 300 300 302 302 298 298 302 301 300 301 301 302 300 298 297 298 302 301 303
301 303 304 304 307 307 305 305 304 307 308 306 305 303 302 302 301 299 298 298 297 297 297 297 297 298 300 301 298 297 298 299 300 300 300 301 298 297 296 299 298 298 300
300 301 302 303 304 309 307 306 306 307 306 305 304 304 302 302 301 299 297 297 296 296 296 296 296 297 298 300 299 298 297 298 300 301 300 297 296 296 299 299 299 299 302
299 300 300 301 303 308 309 308 309 308 306 304 304 304 302 301 301 300 299 298 296 295 296 296 296 296 297 298 298 299 301 298 300 301 301 299 298 297 298 300 300 301 301
299 300 299 300 303 307 308 310 310 308 306 305 304 303 303 301 300 300 300 299 300 298 297 297 298 297 297 299 298 297 299 300 298 298 299 299 299 298 299 300 300 302 302
297 298 299 298 301 305 307 310 311 309 307 305 304 303 302 302 301 300 300 296 297 295 294 294 298 300 297 295 294 294 294 294 293 298 297 297 298 298 300 301 301 303 303
Wind_Speed
5 6 8 9 9 8 6 5 7 6 6 3 3 2 2 2 3 2 1 2 2 5 5 4 4 3 5 5 4 2 2 2 1 1 2 2 4 6 6 5 6 6 7
6 7 7 9 9 8 7 7 6 5 3 3 3 3 4 2 2 2 3 3 4 3 3 3 4 1 3 3 5 3 1 1 3 0 1 2 3 6 7 6 8 9 5
7 4 6 7 7 8 7 7 7 7 6 3 3 3 5 4 3 2 1 4 3 4 4 3 4 1 1 5 2 2 6 1 2 1 1 3 3 3 3 9 7 8 8
6 4 5 5 5 5 5 7 7 7 6 6 4 3 2 3 3 3 3 2 5 6 4 0 2 3 2 3 4 3 5 7 4 2 4 5 4 4 5 2 6 8 8
7 9 6 5 5 5 5 6 8 8 7 8 7 6 6 5 4 4 6 5 6 7 7 6 5 4 4 4 5 5 5 4 3 6 3 5 4 4 5 3 3 3 5
6 5 6 5 6 5 6 6 8 8 8 9 10 10 8 5 5 6 4 4 4 5 7 7 6 5 5 6 4 5 4 4 4 4 7 8 5 5 8 12 10 8 3
10 10 11 9 5 6 6 6 7 8 8 10 10 9 9 8 9 6 4 4 3 4 6 7 7 6 7 6 6 6 6 3 2 6 6 6 6 4 6 4 3 6 4
8 8 6 7 7 6 6 7 8 8 7 8 8 6 7 6 5 5 5 4 4 3 4 5 6 7 7 7 7 4 4 5 3 4 4 4 4 5 7 6 6 7 8
11 9 7 6 7 7 7 9 9 8 7 7 6 7 6 7 6 5 5 4 3 3 4 5 5 6 6 7 7 5 6 5 4 4 3 3 4 5 6 6 8 9 11
8 9 9 9 7 7 7 7 8 10 8 8 6 6 6 6 5 5 5 5 3 3 5 5 5 5 5 6 6 5 6 7 5 4 6 5 3 4 5 5 7 8 10
14 14 12 9 9 7 6 6 7 9 8 7 6 8 6 6 5 5 4 4 3 4 3 3 4 4 5 5 6 7 7 7 7 6 7 8 7 4 5 6 6 8 8
14 11 10 9 8 8 6 7 6 7 7 6 6 6 6 7 6 5 4 4 4 3 3 3 4 4 4 5 6 6 7 7 6 7 8 8 6 7 6 4 6 8 9
7 8 8 10 11 10 9 8 8 8 8 7 7 7 6 6 6 5 5 4 4 3 3 3 3 3 4 5 5 5 6 6 6 6 6 7 7 7 5 6 6 6 6
5 4 5 5 7 8 9 9 8 8 8 8 7 6 6 6 5 5 5 5 4 4 3 2 1 3 4 4 5 5 6 6 6 6 5 5 6 7 9 7 8 8 9
7 7 8 7 8 6 6 7 7 9 8 8 8 7 6 6 5 4 4 4 3 2 3 2 1 0 1 1 3 4 5 6 7 8 7 6 10 17 12 7 8 9 8
8 7 9 10 11 11 11 10 9 10 9 9 9 6 6 7 6 5 3 2 1 1 2 1 3 2 2 3 4 4 4 5 7 8 8 7 10 14 15 12 10 9 10
9 10 10 12 14 15 13 15 12 9 11 10 9 9 7 7 6 6 5 4 3 3 2 3 4 5 5 6 4 3 2 5 6 7 5 5 6 13 6 5 7 7 15
9 11 10 12 13 13 14 13 12 13 12 11 10 10 9 8 6 5 5 4 2 3 3 4 6 6 4 9 7 5 2 3 3 4 4 6 6 9 9 7 6 4 7
7 8 10 12 12 12 13 15 14 14 13 12 11 11 11 9 7 7 6 4 4 3 4 4 3 5 7 8 7 5 2 3 4 3 5 4 5 10 11 8 8 8 8
5 7 10 11 10 6 7 12 12 13 15 15 14 12 11 10 9 8 7 4 3 4 3 4 3 5 5 5 8 7 3 2 3 3 2 8 8 11 11 6 4 6 6
6 6 6 7 8 5 6 11 11 14 15 10 11 10 10 10 8 7 4 5 5 4 4 5 4 4 5 3 8 8 4 2 3 2 2 3 4 6 9 7 4 3 7
11 6 5 5 6 5 6 9 12 13 10 10 10 10 10 8 7 8 6 5 5 4 5 6 4 3 5 4 7 10 9 6 4 4 4 5 8 7 6 1 5 9 8
12 10 6 7 6 6 9 10 12 9 9 11 10 10 10 9 8 8 7 5 6 5 5 5 4 3 3 4 8 10 10 9 7 5 5 10 9 3 6 10 6 6 3
13 11 9 7 7 4 7 11 8 9 11 12 11 10 10 10 8 7 7 7 6 6 6 6 5 4 4 4 5 6 6 8 8 7 4 6 7 8 8 8 5 3 4
11 10 10 10 9 7 5 8 9 8 9 11 10 10 9 10 9 9 9 9 8 9 8 7 6 5 5 6 8 7 6 7 6 2 4 6 5 7 7 6 6 5 3
13 13 12 10 11 9 8 5 7 13 14 11 8 9 9 9 8 8 7 11 10 15 14 11 9 6 10 9 11 12 14 12 8 4 6 7 7 8 8 7 6 5 4
Wind_Direction
68 36 39 46 67 62 93 143 160 168 143 128 140 145 182 217 253 201 148 188 219 226 224 223 207 176 148 143 153 133 191 287 355 343 155 189 200 216 220 196 214 227 224
75 53 36 55 60 59 61 68 81 84 138 164 168 171 171 179 132 95 66 59 84 78 62 320 301 216 119 121 118 139 142 352 48 36 59 292 245 228 209 204 211 214 217
134 102 64 50 44 61 56 58 63 64 46 14 126 95 93 97 107 115 35 14 28 67 67 109 177 145 226 133 251 152 131 96 16 10 17 318 280 299 188 218 214 206 211
127 130 127 100 81 67 64 69 57 60 49 35 58 58 88 117 71 67 54 342 355 22 7 3 244 230 193 170 204 202 175 134 230 255 196 181 180 296 328 276 226 208 213
161 155 150 136 113 96 79 72 77 61 50 60 66 75 79 79 88 77 70 42 20 27 28 21 0 302 274 255 239 213 215 240 255 226 179 204 212 170 218 253 306 253 235
151 139 130 131 111 103 97 88 86 73 64 70 73 84 86 84 85 70 65 47 35 25 15 23 21 16 10 355 316 281 284 267 234 222 222 224 225 214 222 245 252 277 286
166 172 166 148 138 125 105 98 90 84 80 82 80 86 97 98 88 84 73 65 51 37 8 20 19 16 9 4 359 355 351 327 251 210 221 223 227 241 234 210 213 222 227
185 176 186 155 156 143 133 130 119 112 104 101 100 102 99 99 89 83 86 72 67 49 27 27 30 22 19 12 6 11 11 7 352 329 319 311 278 233 231 229 222 244 233
185 178 185 169 162 154 173 156 139 130 121 115 106 92 91 89 97 98 95 84 56 50 50 50 49 37 32 23 11 18 16 6 357 342 313 292 289 305 302 289 242 236 251
161 186 195 182 173 174 178 159 153 143 136 126 118 107 103 100 106 106 99 95 77 54 50 44 43 39 34 27 23 14 10 13 6 359 353 343 316 299 291 294 292 281 262
182 196 195 195 175 172 182 169 158 138 137 135 131 117 115 111 103 102 100 106 107 83 68 54 43 41 38 26 24 13 4 0 349 352 352 341 337 334 322 304 292 284 289
197 191 189 177 169 181 184 182 164 154 158 142 126 123 132 138 128 130 134 124 106 104 92 58 31 12 16 20 19 10 0 359 356 351 349 345 340 330 320 309 308 311 304
195 187 182 186 186 186 188 187 183 177 163 153 143 148 155 143 146 148 145 140 129 118 90 72 42 14 9 11 8 4 357 354 357 351 351 338 334 328 303 320 310 291 278
226 221 224 218 200 190 191 198 192 180 170 159 152 157 159 157 163 162 154 147 157 143 130 121 59 20 6 1 356 350 346 343 338 329 311 303 306 305 308 312 310 307 294
217 215 214 202 206 200 223 217 190 189 171 165 165 170 162 154 159 161 154 149 148 148 154 158 69 25 322 311 331 323 328 339 332 325 317 305 300 307 301 304 311 319 298
340 276 221 203 204 207 201 202 200 198 178 173 176 171 167 161 170 176 190 189 227 194 177 231 243 258 259 266 314 342 332 332 326 318 314 316 327 317 284 287 320 347 331
339 325 313 245 210 208 202 203 198 184 185 185 176 174 181 181 178 180 189 224 236 219 256 281 277 255 240 241 259 284 319 324 324 319 332 325 345 340 336 308 324 352 354
340 331 316 313 240 210 200 197 184 184 190 187 190 179 181 191 171 181 201 199 211 239 260 265 260 272 260 226 218 229 280 316 330 327 343 350 347 355 16 360 343 13 20
298 303 311 305 286 220 206 197 186 183 181 190 194 187 180 185 174 192 199 185 196 208 234 245 281 317 280 222 196 208 260 301 303 316 355 355 345 344 3 2 8 14 19
276 298 317 319 315 250 194 192 188 188 193 191 191 184 174 175 186 189 191 176 204 205 224 250 243 280 274 227 195 190 201 276 308 328 327 321 315 314 308 328 326 343 346
281 290 305 314 308 292 196 197 192 200 204 182 179 174 173 172 192 178 171 181 206 209 222 235 231 265 274 216 194 201 198 229 289 287 290 276 306 332 355 9 3 347 330
304 293 288 290 299 264 226 225 209 208 185 170 184 172 174 170 182 176 185 190 183 196 219 236 257 247 250 216 211 219 217 223 247 262 283 281 279 294 310 310 311 305 306
290 286 258 275 277 250 234 233 232 187 178 171 185 185 174 175 178 175 182 184 175 193 214 224 228 228 240 221 226 235 241 231 237 257 258 273 273 300 322 312 299 293 297
286 285 277 263 265 262 235 243 231 192 182 192 187 185 179 184 178 181 185 189 179 192 207 216 225 218 234 223 232 236 240 231 245 250 261 270 284 284 283 306 295 258 249
287 285 279 275 267 252 253 246 247 191 199 210 191 181 194 193 187 198 189 200 202 189 192 214 208 206 219 226 203 206 225 230 222 244 256 279 284 293 296 291 285 277 233
282 283 284 274 272 263 245 257 278 215 207 205 190 192 193 196 193 198 201 223 202 196 207 198 192 225 236 178 201 210 223 228 182 214 247 261 268 275 286 288 289 275 261